�v������,���r���O(���x),�����t���O,���r���O(���x),�����t���O,��1(���x),�����t���O,��1(���x),�����t���O,�O�C���x,�����t���O,�O�C���x,�����t���O,�������x,�����t���O,�C�ۑ�(���x),�����t���O,�C�ۑ�(���x),�����t���O
1/1/2004 0:00,20.2,0,37,0,16.8,0,48,0,6.5,0,58,0,10,0,7.7,0,58.8,0
1/1/2004 0:15,20,0,37,0,16.7,0,48,0,6.1,0,59,0,10.2,0,7.6,0,59.3,0
1/1/2004 0:30,19.7,0,38,0,16.7,0,49,0,6.6,0,60,0,9.6,0,7.5,0,59.8,0
1/1/2004 0:45,19.5,0,38,0,16.7,0,49,0,6.7,0,59,0,9.7,0,7.5,0,60.3,0
1/1/2004 1:00,19.3,0,38,0,16.8,0,51,0,6.5,0,57,0,9.9,0,7.4,0,60.8,0
1/1/2004 1:15,19.3,0,39,0,16.8,0,51,0,6.5,0,58,0,10,0,7.6,0,59.8,0
1/1/2004 1:30,19.1,0,40,0,16.8,0,51,0,6.7,0,59,0,10.2,0,7.8,0,58.8,0
1/1/2004 1:45,18.9,0,40,0,16.8,0,50,0,6,0,60,0,10.3,0,8,0,57.8,0
1/1/2004 2:00,18.9,0,40,0,16.7,0,51,0,5.8,0,62,0,10.4,0,8.2,0,56.8,0
1/1/2004 2:15,18.6,0,41,0,16.8,0,51,0,5.8,0,62,0,10.7,0,7.8,0,58.3,0
1/1/2004 2:30,18.5,0,41,0,16.7,0,52,0,6,0,62,0,10.8,0,7.5,0,59.8,0
1/1/2004 2:45,18.5,0,41,0,16.7,0,52,0,6,0,61,0,10.9,0,7.1,0,61.3,0
1/1/2004 3:00,18.2,0,42,0,16.6,0,53,0,6.5,0,58,0,11.1,0,6.8,0,62.8,0
1/1/2004 3:15,18.1,0,42,0,16.6,0,54,0,6.5,0,58,0,11.3,0,6.7,0,63,0
1/1/2004 3:30,18.1,0,42,0,16.7,0,54,0,7,0,57,0,11.4,0,6.6,0,63.3,0
1/1/2004 3:45,17.9,0,42,0,16.6,0,54,0,6.5,0,55,0,11.6,0,6.6,0,63.5,0
1/1/2004 4:00,17.8,0,41,0,16.5,0,55,0,6.8,0,54,0,11.8,0,6.5,0,63.8,0
1/1/2004 4:15,17.6,0,41,0,16.5,0,55,0,6.7,0,55,0,11.9,0,6.5,0,62.8,0
1/1/2004 4:30,17.5,0,41,0,16.5,0,56,0,6.8,0,53,0,12.1,0,6.6,0,61.8,0
1/1/2004 4:45,17.5,0,40,0,16.5,0,57,0,6.8,0,51,0,12.2,0,6.6,0,60.8,0
1/1/2004 5:00,17.5,0,40,0,16.6,0,57,0,6.9,0,51,0,12.4,0,6.7,0,59.8,0
1/1/2004 5:15,17.3,0,40,0,16.5,0,57,0,7.1,0,50,0,12.6,0,6.8,0,59,0
1/1/2004 5:30,17.3,0,40,0,16.4,0,57,0,7,0,49,0,12.7,0,6.9,0,58.3,0
1/1/2004 5:45,17.1,0,40,0,16.3,0,57,0,6.8,0,49,0,12.9,0,7.1,0,57.5,0
1/1/2004 6:00,16.8,0,39,0,16.3,0,57,0,6.8,0,49,0,13,0,7.2,0,56.8,0
1/1/2004 6:15,16.4,0,39,0,16.3,0,57,0,6.9,0,48,0,13,0,7.1,0,56.3,0
1/1/2004 6:30,16.2,0,39,0,16.3,0,57,0,7.1,0,49,0,13.2,0,7.1,0,55.8,0
1/1/2004 6:45,16.1,0,39,0,16.2,0,57,0,6.9,0,48,0,13.4,0,7,0,55.3,0
1/1/2004 7:00,15.9,0,39,0,16.1,0,57,0,7,0,48,0,13.5,0,7,0,54.8,0
1/1/2004 7:15,15.7,0,39,0,16.1,0,57,0,7,0,47,0,13.7,0,7.1,0,54.8,0
1/1/2004 7:30,15.5,0,39,0,16.1,0,57,0,7,0,48,0,13.8,0,7.2,0,54.8,0
1/1/2004 7:45,15.3,0,40,0,16.1,0,58,0,7.3,0,47,0,14,0,7.4,0,54.8,0
1/1/2004 8:00,15.3,0,40,0,16,0,58,0,7.4,0,46,0,14.1,0,7.5,0,54.8,0
1/1/2004 8:15,15.3,0,39,0,16,0,58,0,7.8,0,45,0,11.6,0,7.8,0,53.5,0
1/1/2004 8:30,15.4,0,39,0,16.1,0,59,0,8.1,0,44,0,11.6,0,8.2,0,52.3,0
1/1/2004 8:45,15.5,0,39,0,16.2,0,59,0,8.4,0,42,0,11.9,0,8.5,0,51,0
1/1/2004 9:00,15.4,0,38,0,16.7,0,57,0,8.8,0,41,0,12,0,8.9,0,49.8,0
1/1/2004 9:15,15.4,0,38,0,16.5,0,55,0,9,0,41,0,12,0,9.2,0,48.5,0
1/1/2004 9:30,15.3,0,36,0,16.3,0,54,0,9.3,0,40,0,10,0,9.4,0,47.3,0
1/1/2004 9:45,15.5,0,37,0,16.4,0,53,0,9.5,0,39,0,10.2,0,9.7,0,46,0
1/1/2004 10:00,16.8,0,39,0,16.2,0,53,0,9.7,0,38,0,10.4,0,10,0,44.8,0
1/1/2004 10:15,17.8,0,38,0,16.2,0,53,0,10,0,38,0,10.5,0,10.1,0,44,0
1/1/2004 10:30,18.7,0,37,0,16.4,0,52,0,10.5,0,36,0,10.7,0,10.3,0,43.3,0
1/1/2004 10:45,19.4,0,36,0,16.4,0,52,0,10.5,0,36,0,10.9,0,10.4,0,42.5,0
1/1/2004 11:00,20.1,0,36,0,16.4,0,52,0,10.4,0,35,0,11.1,0,10.6,0,41.8,0
1/1/2004 11:15,20,0,35,0,16.4,0,52,0,10.6,0,35,0,11.2,0,10.7,0,41.3,0
1/1/2004 11:30,19.4,0,36,0,16.4,0,52,0,10.7,0,36,0,11.4,0,10.7,0,40.8,0
1/1/2004 11:45,19.4,0,37,0,16.4,0,52,0,10.9,0,35,0,11.6,0,10.8,0,40.3,0
1/1/2004 12:00,19.2,0,38,0,16.4,0,52,0,10.5,0,36,0,11.8,0,10.9,0,39.8,0
1/1/2004 12:15,19,0,38,0,16.4,0,52,0,10.8,0,36,0,10.9,0,11.3,0,40.5,0
1/1/2004 12:30,19,0,38,0,16.3,0,52,0,10.6,0,36,0,10,0,11.7,0,41.3,0
1/1/2004 12:45,18.7,0,38,0,16.4,0,52,0,10.3,0,37,0,10.1,0,12.2,0,42,0
1/1/2004 13:00,18.6,0,38,0,16.3,0,52,0,10.4,0,37,0,10.3,0,12.6,0,42.8,0
1/1/2004 13:15,20.3,0,38,0,16.4,0,52,0,11,0,35,0,10.5,0,12.3,0,42.8,0
1/1/2004 13:30,21.1,0,35,0,16.4,0,52,0,11.4,0,35,0,10.7,0,12.1,0,42.8,0
1/1/2004 13:45,20.5,0,35,0,16.5,0,52,0,12.2,0,33,0,10.8,0,11.8,0,42.8,0
1/1/2004 14:00,20.3,0,38,0,16.5,0,52,0,12.2,0,33,0,11.1,0,11.6,0,42.8,0
1/1/2004 14:15,19.5,0,37,0,16.5,0,52,0,11.4,0,34,0,10.7,0,11.6,0,42,0
1/1/2004 14:30,19.6,0,38,0,16.6,0,52,0,11.7,0,34,0,10.2,0,11.5,0,41.3,0
1/1/2004 14:45,20,0,39,0,16.5,0,52,0,11.4,0,34,0,10.3,0,11.5,0,40.5,0
1/1/2004 15:00,19.9,0,38,0,16.6,0,52,0,11.4,0,34,0,10.5,0,11.5,0,39.8,0
1/1/2004 15:15,19.6,0,39,0,17.1,0,51,0,11.1,0,35,0,10,0,11.4,0,39.8,0
1/1/2004 15:30,19.5,0,39,0,17.2,0,51,0,11,0,37,0,10.1,0,11.4,0,39.8,0
1/1/2004 15:45,19.1,0,40,0,17.3,0,50,0,10.9,0,37,0,10.3,0,11.3,0,39.8,0
1/1/2004 16:00,18.8,0,41,0,17.2,0,50,0,10.9,0,37,0,10.4,0,11.3,0,39.8,0
1/1/2004 16:15,18.8,0,42,0,17.2,0,50,0,10.8,0,37,0,10.7,0,11.1,0,41.8,0
1/1/2004 16:30,18.6,0,41,0,17.1,0,50,0,10.5,0,38,0,10.4,0,10.9,0,43.8,0
1/1/2004 16:45,18.4,0,41,0,17.1,0,51,0,10.7,0,38,0,10.6,0,10.8,0,45.8,0
1/1/2004 17:00,18.3,0,40,0,17.1,0,51,0,10.7,0,37,0,10.7,0,10.6,0,47.8,0
1/1/2004 17:15,18.2,0,40,0,17,0,51,0,10.2,0,39,0,11,0,10.4,0,48.5,0
1/1/2004 17:30,18.1,0,39,0,17,0,51,0,9.7,0,41,0,11.1,0,10.2,0,49.3,0
1/1/2004 17:45,17.9,0,39,0,17,0,51,0,9.2,0,44,0,11.3,0,10.1,0,50,0
1/1/2004 18:00,17.9,0,40,0,17,0,51,0,8.7,0,46,0,11.6,0,9.9,0,50.8,0
1/1/2004 18:15,18.7,0,40,0,16.9,0,51,0,8.6,0,47,0,11.7,0,10,0,53.5,0
1/1/2004 18:30,20.7,0,39,0,16.9,0,51,0,8.4,0,49,0,10.8,0,10.1,0,56.3,0
1/1/2004 18:45,21.9,0,37,0,16.8,0,52,0,8.1,0,51,0,9.8,0,10.2,0,59,0
1/1/2004 19:00,21.8,0,36,0,16.9,0,56,0,8.1,0,53,0,9.8,0,10.3,0,61.8,0
1/1/2004 19:15,21.1,0,36,0,16.8,0,53,0,8.1,0,52,0,10,0,10.1,0,63.6,0
1/1/2004 19:30,20.6,0,37,0,16.9,0,53,0,8.3,0,53,0,10.2,0,10,0,65.3,0
1/1/2004 19:45,20.3,0,38,0,16.7,0,53,0,7.9,0,55,0,10.3,0,9.8,0,67.1,0
1/1/2004 20:00,20,0,39,0,16.7,0,53,0,8.1,0,55,0,10.6,0,9.7,0,68.8,0
1/1/2004 20:15,19.9,0,40,0,16.8,0,53,0,7.6,0,58,0,10.8,0,9.8,0,67.6,0
1/1/2004 20:30,20,0,42,0,16.7,0,53,0,7.5,0,61,0,10.9,0,9.8,0,66.3,0
1/1/2004 20:45,19.8,0,43,0,16.7,0,53,0,7.6,0,60,0,11.1,0,9.9,0,65.1,0
1/1/2004 21:00,21.7,0,41,0,16.6,0,53,0,7.7,0,60,0,10.7,0,10,0,63.8,0
1/1/2004 21:15,21.9,0,39,0,16.6,0,53,0,7.5,0,62,0,10.8,0,9.9,0,64.3,0
1/1/2004 21:30,21,0,39,0,16.6,0,53,0,8,0,60,0,10.9,0,9.9,0,64.8,0
1/1/2004 21:45,20.2,0,41,0,16.6,0,53,0,7.6,0,63,0,11.2,0,9.8,0,65.3,0
1/1/2004 22:00,19.9,0,41,0,16.6,0,53,0,7.7,0,63,0,11.3,0,9.8,0,65.8,0
1/1/2004 22:15,19.7,0,41,0,16.5,0,53,0,7.9,0,62,0,11.4,0,9.6,0,66.8,0
1/1/2004 22:30,19.4,0,41,0,16.7,0,58,0,8.2,0,61,0,11.6,0,9.5,0,67.8,0
1/1/2004 22:45,19.2,0,41,0,16.7,0,56,0,8.7,0,59,0,11.7,0,9.3,0,68.8,0
1/1/2004 23:00,19.1,0,40,0,16.6,0,57,0,8.7,0,60,0,11.9,0,9.2,0,69.8,0
1/1/2004 23:15,19,0,41,0,16.6,0,55,0,8.5,0,59,0,12.1,0,9,0,69.6,0
1/1/2004 23:30,18.6,0,41,0,16.5,0,55,0,8.4,0,58,0,12.2,0,8.9,0,69.3,0
1/1/2004 23:45,18.5,0,41,0,16.9,0,55,0,8.2,0,57,0,12.3,0,8.7,0,69.1,0
1/2/2004 0:00,18.4,0,41,0,17.1,0,56,0,8.2,0,56,0,12.3,0,8.6,0,68.8,0
1/2/2004 0:15,18.1,0,41,0,17,0,57,0,7.9,0,56,0,10.3,0,8.4,0,68.3,0
1/2/2004 0:30,18,0,40,0,16.8,0,57,0,7.5,0,56,0,10.4,0,8.2,0,67.8,0
1/2/2004 0:45,17.9,0,39,0,16.8,0,58,0,7.3,0,56,0,10.6,0,8,0,67.3,0
1/2/2004 1:00,17.8,0,40,0,16.9,0,58,0,7.2,0,56,0,10.7,0,7.8,0,66.8,0
1/2/2004 1:15,17.7,0,41,0,16.8,0,58,0,7.2,0,56,0,10.9,0,7.6,0,66.3,0
1/2/2004 1:30,17.8,0,41,0,16.8,0,59,0,7,0,57,0,11.1,0,7.3,0,65.8,0
1/2/2004 1:45,17.7,0,41,0,16.8,0,59,0,7.1,0,56,0,11.2,0,7.1,0,65.3,0
1/2/2004 2:00,17.6,0,41,0,16.8,0,61,0,6.8,0,56,0,11.3,0,6.9,0,64.8,0
1/2/2004 2:15,17.7,0,41,0,16.9,0,62,0,6.9,0,54,0,11.5,0,6.8,0,64.8,0
1/2/2004 2:30,17.6,0,41,0,16.8,0,62,0,6.8,0,54,0,11.6,0,6.6,0,64.8,0
1/2/2004 2:45,17.5,0,41,0,16.9,0,63,0,6.8,0,53,0,11.8,0,6.5,0,64.8,0
1/2/2004 3:00,17.4,0,41,0,16.7,0,63,0,7,0,54,0,12,0,6.4,0,64.8,0
1/2/2004 3:15,17.3,0,41,0,16.7,0,62,0,7.1,0,53,0,12,0,6.3,0,64.6,0
1/2/2004 3:30,17,0,41,0,16.7,0,63,0,6.3,0,55,0,12.2,0,6.2,0,64.3,0
1/2/2004 3:45,16.8,0,42,0,16.7,0,63,0,6.1,0,55,0,12.4,0,6.1,0,64.1,0
1/2/2004 4:00,16.5,0,43,0,16.8,0,64,0,5.3,0,60,0,12.5,0,6,0,63.8,0
1/2/2004 4:15,16.3,0,42,0,16.7,0,64,0,5,0,61,0,12.8,0,5.9,0,64.3,0
1/2/2004 4:30,16.2,0,42,0,16.7,0,63,0,5.7,0,60,0,12.8,0,5.8,0,64.8,0
1/2/2004 4:45,15.9,0,42,0,16.7,0,63,0,6.5,0,59,0,13,0,5.8,0,65.3,0
1/2/2004 5:00,15.7,0,42,0,16.7,0,63,0,4.5,0,62,0,13.2,0,5.7,0,65.8,0
1/2/2004 5:15,15.6,0,42,0,16.5,0,63,0,4.9,0,63,0,13.3,0,5.5,0,66.3,0
1/2/2004 5:30,15.5,0,42,0,16.6,0,63,0,5,0,64,0,13.4,0,5.3,0,66.8,0
1/2/2004 5:45,15.3,0,41,0,16.5,0,63,0,4.3,0,64,0,13.5,0,5.2,0,67.3,0
1/2/2004 6:00,15.3,0,41,0,16.4,0,62,0,4.9,0,64,0,13.7,0,5,0,67.8,0
1/2/2004 6:15,15.1,0,41,0,16.3,0,62,0,4.8,0,65,0,13.8,0,5.1,0,67.8,0
1/2/2004 6:30,15,0,41,0,16.4,0,62,0,6.1,0,61,0,14,0,5.2,0,67.8,0
1/2/2004 6:45,14.9,0,41,0,16.3,0,62,0,4.8,0,64,0,14.1,0,5.4,0,67.8,0
1/2/2004 7:00,14.8,0,41,0,16.3,0,62,0,5.9,0,64,0,14.3,0,5.5,0,67.8,0
1/2/2004 7:15,14.7,0,42,0,16.1,0,62,0,4.9,0,66,0,14.4,0,5.8,0,67.3,0
1/2/2004 7:30,14.5,0,42,0,16.1,0,61,0,5.1,0,65,0,14.4,0,6,0,66.8,0
1/2/2004 7:45,14.4,0,42,0,16.1,0,62,0,5.6,0,65,0,14.5,0,6.3,0,66.3,0
1/2/2004 8:00,14.5,0,42,0,16,0,62,0,5.7,0,64,0,14.7,0,6.6,0,65.8,0
1/2/2004 8:15,14.4,0,43,0,16.1,0,62,0,6.5,0,61,0,14.8,0,7.1,0,65.1,0
1/2/2004 8:30,14.4,0,43,0,16.1,0,62,0,6.5,0,61,0,14.9,0,7.7,0,64.3,0
1/2/2004 8:45,14.4,0,43,0,16.2,0,62,0,6.8,0,60,0,15.1,0,8.2,0,63.6,0
1/2/2004 9:00,14.4,0,42,0,16.6,0,58,0,7.4,0,59,0,15.2,0,8.8,0,62.8,0
1/2/2004 9:15,14.4,0,43,0,16.4,0,59,0,7.7,0,56,0,9.7,0,9.2,0,61.3,0
1/2/2004 9:30,14.7,0,43,0,16.5,0,59,0,8.1,0,56,0,10,0,9.7,0,59.8,0
1/2/2004 9:45,14.9,0,43,0,16.6,0,58,0,8.9,0,53,0,10.1,0,10.1,0,58.3,0
1/2/2004 10:00,15.2,0,44,0,16.8,0,57,0,9.3,0,49,0,10.3,0,10.6,0,56.8,0
1/2/2004 10:15,15.3,0,45,0,17.1,0,54,0,9.9,0,49,0,10,0,10.8,0,57,0
1/2/2004 10:30,15.6,0,45,0,17.4,0,55,0,10.4,0,48,0,10.2,0,11.1,0,57.3,0
1/2/2004 10:45,15.6,0,45,0,17.8,0,54,0,10.8,0,48,0,10.3,0,11.3,0,57.5,0
1/2/2004 11:00,15.7,0,46,0,18,0,53,0,11.5,0,46,0,10.5,0,11.6,0,57.8,0
1/2/2004 11:15,15.8,0,46,0,18.2,0,53,0,12.1,0,44,0,10.7,0,11.9,0,57.8,0
1/2/2004 11:30,16,0,46,0,18.4,0,52,0,13,0,42,0,10.8,0,12.3,0,57.8,0
1/2/2004 11:45,16.1,0,46,0,18.6,0,52,0,13.2,0,42,0,11.1,0,12.6,0,57.8,0
1/2/2004 12:00,16.2,0,46,0,18.8,0,52,0,14.1,0,39,0,10.2,0,13,0,57.8,0
1/2/2004 12:15,16.2,0,47,0,18.9,0,50,0,13.9,0,41,0,10.3,0,13.3,0,56,0
1/2/2004 12:30,16.4,0,47,0,18.9,0,49,0,14.3,0,41,0,10.4,0,13.6,0,54.3,0
1/2/2004 12:45,16.4,0,47,0,19,0,49,0,15,0,38,0,10.7,0,13.9,0,52.5,0
1/2/2004 13:00,16.6,0,46,0,19.2,0,48,0,14.7,0,37,0,10.8,0,14.2,0,50.8,0
1/2/2004 13:15,16.6,0,46,0,19.2,0,47,0,14.7,0,39,0,11,0,14.4,0,48.3,0
1/2/2004 13:30,16.8,0,46,0,19.3,0,48,0,14,0,42,0,11.1,0,14.5,0,45.8,0
1/2/2004 13:45,16.8,0,46,0,19.4,0,49,0,14.3,0,39,0,11.4,0,14.7,0,43.3,0
1/2/2004 14:00,16.9,0,46,0,19.5,0,49,0,14,0,38,0,11.6,0,14.9,0,40.8,0
1/2/2004 14:15,17,0,46,0,19.5,0,48,0,14.1,0,36,0,11.7,0,14.8,0,40.3,0
1/2/2004 14:30,17,0,45,0,19.5,0,48,0,13.6,0,37,0,12,0,14.7,0,39.8,0
1/2/2004 14:45,17.1,0,46,0,19.5,0,48,0,13.2,0,38,0,12.1,0,14.6,0,39.3,0
1/2/2004 15:00,17.1,0,46,0,19.4,0,48,0,13.2,0,38,0,12.3,0,14.5,0,38.8,0
1/2/2004 15:15,17.1,0,46,0,19.3,0,48,0,13.7,0,37,0,12.4,0,14.6,0,37.8,0
1/2/2004 15:30,17.1,0,46,0,19.2,0,47,0,13.1,0,38,0,12.7,0,14.7,0,36.8,0
1/2/2004 15:45,17.1,0,47,0,19.1,0,46,0,13.2,0,37,0,12.8,0,14.8,0,35.8,0
1/2/2004 16:00,16.9,0,47,0,19,0,46,0,12.8,0,38,0,12.9,0,14.9,0,34.8,0
1/2/2004 16:15,16.9,0,47,0,19,0,48,0,13.2,0,38,0,13.1,0,14.6,0,35.3,0
1/2/2004 16:30,16.9,0,47,0,18.9,0,49,0,12.7,0,41,0,11.5,0,14.3,0,35.8,0
1/2/2004 16:45,17.3,0,48,0,18.7,0,50,0,12.7,0,39,0,11.6,0,14,0,36.3,0
1/2/2004 17:00,17.3,0,48,0,19,0,54,0,12.8,0,41,0,11.8,0,13.7,0,36.8,0
1/2/2004 17:15,17.3,0,48,0,18.9,0,53,0,12.4,0,43,0,12,0,13.3,0,40.5,0
1/2/2004 17:30,17.2,0,46,0,18.7,0,53,0,12.1,0,44,0,12.1,0,12.9,0,44.3,0
1/2/2004 17:45,17,0,46,0,18.6,0,54,0,12,0,45,0,12.3,0,12.6,0,48,0
1/2/2004 18:00,17.1,0,48,0,18.5,0,53,0,11.5,0,46,0,12.4,0,12.2,0,51.8,0
1/2/2004 18:15,16.9,0,46,0,18.4,0,54,0,11.6,0,46,0,12.5,0,11.9,0,53,0
1/2/2004 18:30,16.7,0,46,0,18.3,0,54,0,11.2,0,48,0,11.2,0,11.6,0,54.3,0
1/2/2004 18:45,16.7,0,45,0,18.2,0,54,0,10.7,0,49,0,11.3,0,11.4,0,55.5,0
1/2/2004 19:00,17.7,0,46,0,18.2,0,54,0,10.5,0,50,0,11.6,0,11.1,0,56.8,0
1/2/2004 19:15,19.7,0,44,0,18.1,0,54,0,10.3,0,51,0,11.7,0,11.1,0,56.5,0
1/2/2004 19:30,20.9,0,43,0,18,0,54,0,10.5,0,52,0,11.9,0,11,0,56.3,0
1/2/2004 19:45,21.7,0,40,0,17.9,0,53,0,10.6,0,50,0,12,0,11,0,56,0
1/2/2004 20:00,21.5,0,39,0,17.9,0,52,0,10.5,0,49,0,12.2,0,11,0,55.8,0
1/2/2004 20:15,21.3,0,39,0,17.9,0,52,0,10.2,0,51,0,12.3,0,10.7,0,57.5,0
1/2/2004 20:30,21.1,0,39,0,17.8,0,52,0,9.8,0,53,0,11.3,0,10.4,0,59.3,0
1/2/2004 20:45,20.9,0,40,0,17.8,0,52,0,9.6,0,54,0,11.4,0,10.1,0,61,0
1/2/2004 21:00,20.7,0,40,0,17.8,0,51,0,9.5,0,55,0,10.7,0,9.8,0,62.8,0
1/2/2004 21:15,20.5,0,41,0,17.7,0,51,0,9.3,0,57,0,10.9,0,9.8,0,65.8,0
1/2/2004 21:30,20.3,0,40,0,17.7,0,51,0,9.3,0,60,0,11,0,9.8,0,68.8,0
1/2/2004 21:45,20.2,0,40,0,17.7,0,51,0,9.4,0,61,0,11.2,0,9.8,0,71.8,0
1/2/2004 22:00,20.2,0,40,0,17.6,0,51,0,9.4,0,62,0,11.3,0,9.8,0,74.8,0
1/2/2004 22:15,22,0,38,0,17.6,0,51,0,9.3,0,63,0,11.5,0,9.6,0,74.8,0
1/2/2004 22:30,22,0,39,0,17.5,0,51,0,9.3,0,64,0,11.6,0,9.4,0,74.8,0
1/2/2004 22:45,21.5,0,40,0,17.5,0,52,0,9.3,0,64,0,11.9,0,9.3,0,74.8,0
1/2/2004 23:00,21.3,0,41,0,17.4,0,52,0,9.2,0,59,0,11.1,0,9.1,0,74.8,0
1/2/2004 23:15,21.1,0,41,0,17.4,0,52,0,8.6,0,58,0,11,0,8.9,0,74.3,0
1/2/2004 23:30,20.6,0,41,0,17.4,0,52,0,9,0,57,0,11.1,0,8.7,0,73.8,0
1/2/2004 23:45,20.2,0,40,0,17.4,0,52,0,9.1,0,57,0,11.2,0,8.5,0,73.3,0
1/3/2004 0:00,19.8,0,41,0,17.4,0,52,0,8.5,0,57,0,11.4,0,8.3,0,72.8,0
1/3/2004 0:15,19.5,0,41,0,17.6,0,53,0,8.1,0,59,0,11.6,0,8.2,0,72.6,0
1/3/2004 0:30,19.2,0,41,0,17.8,0,54,0,8.5,0,58,0,11.7,0,8,0,72.3,0
1/3/2004 0:45,19,0,41,0,17.5,0,54,0,9,0,58,0,11.9,0,7.9,0,72.1,0
1/3/2004 1:00,18.8,0,41,0,17.5,0,54,0,8.7,0,57,0,11.9,0,7.8,0,71.8,0
1/3/2004 1:15,18.5,0,41,0,17.6,0,54,0,8.5,0,57,0,12,0,7.7,0,71.8,0
1/3/2004 1:30,18.3,0,41,0,17.5,0,55,0,7.8,0,58,0,12.2,0,7.6,0,71.8,0
1/3/2004 1:45,18.1,0,41,0,17.6,0,55,0,7.8,0,57,0,12.3,0,7.5,0,71.8,0
1/3/2004 2:00,18,0,41,0,17.5,0,56,0,8.4,0,58,0,12.5,0,7.4,0,71.8,0
1/3/2004 2:15,17.8,0,41,0,17.5,0,57,0,7.8,0,58,0,12.5,0,7.4,0,71.3,0
1/3/2004 2:30,17.6,0,41,0,17.5,0,58,0,7.8,0,58,0,12.7,0,7.4,0,70.8,0
1/3/2004 2:45,17.4,0,42,0,17.5,0,58,0,7.6,0,58,0,12.8,0,7.4,0,70.3,0
1/3/2004 3:00,17.3,0,41,0,17.4,0,58,0,7.8,0,58,0,13,0,7.4,0,69.8,0
1/3/2004 3:15,17.1,0,41,0,17.4,0,58,0,7,0,60,0,13.1,0,7.4,0,69.3,0
1/3/2004 3:30,16.9,0,41,0,17.4,0,59,0,7,0,62,0,13.3,0,7.5,0,68.8,0
1/3/2004 3:45,16.9,0,41,0,17.4,0,59,0,7.1,0,61,0,13.4,0,7.5,0,68.3,0
1/3/2004 4:00,16.7,0,41,0,17.4,0,60,0,7.6,0,59,0,13.5,0,7.6,0,67.8,0
1/3/2004 4:15,16.5,0,41,0,17.4,0,60,0,7.5,0,61,0,13.8,0,7.5,0,68.1,0
1/3/2004 4:30,16.5,0,41,0,17.4,0,60,0,6.4,0,62,0,13.9,0,7.5,0,68.3,0
1/3/2004 4:45,16.4,0,41,0,17.4,0,60,0,6.8,0,62,0,14,0,7.4,0,68.6,0
1/3/2004 5:00,16.2,0,41,0,17.3,0,60,0,5.8,0,65,0,14.1,0,7.4,0,68.8,0
1/3/2004 5:15,16,0,41,0,17.2,0,61,0,5.6,0,67,0,14.2,0,7.3,0,68.8,0
1/3/2004 5:30,15.9,0,41,0,17.3,0,61,0,5.9,0,68,0,14.4,0,7.2,0,68.8,0
1/3/2004 5:45,15.7,0,41,0,17.2,0,61,0,5,0,69,0,14.5,0,7.2,0,68.8,0
1/3/2004 6:00,15.7,0,41,0,17.1,0,61,0,5.3,0,71,0,14.6,0,7.1,0,68.8,0
1/3/2004 6:15,15.4,0,41,0,17.1,0,61,0,5.9,0,69,0,14.7,0,7,0,69.6,0
1/3/2004 6:30,15.4,0,41,0,17.2,0,61,0,5,0,69,0,14.9,0,6.8,0,70.3,0
1/3/2004 6:45,15.2,0,42,0,17.1,0,61,0,5.4,0,69,0,15,0,6.7,0,71.1,0
1/3/2004 7:00,15.2,0,42,0,17.1,0,61,0,6.2,0,66,0,15.1,0,6.6,0,71.8,0
1/3/2004 7:15,15,0,42,0,17,0,60,0,5.1,0,67,0,15.2,0,6.5,0,71.8,0
1/3/2004 7:30,14.8,0,42,0,16.9,0,60,0,6,0,68,0,15.3,0,6.5,0,71.8,0
1/3/2004 7:45,14.8,0,43,0,16.8,0,60,0,5.8,0,65,0,15.4,0,6.4,0,71.8,0
1/3/2004 8:00,14.8,0,43,0,16.8,0,60,0,5.6,0,69,0,15.6,0,6.4,0,71.8,0
1/3/2004 8:15,14.8,0,43,0,16.8,0,60,0,6.8,0,67,0,15.6,0,6.7,0,71.1,0
1/3/2004 8:30,14.8,0,43,0,16.9,0,61,0,7.3,0,63,0,15.7,0,7,0,70.3,0
1/3/2004 8:45,14.7,0,43,0,17.2,0,61,0,7.4,0,61,0,15.8,0,7.4,0,69.6,0
1/3/2004 9:00,14.8,0,42,0,17.3,0,59,0,7.8,0,59,0,15.9,0,7.7,0,68.8,0
1/3/2004 9:15,15.1,0,43,0,17.3,0,59,0,8.3,0,58,0,16,0,8.2,0,67.1,0
1/3/2004 9:30,15.4,0,43,0,17.4,0,57,0,8.5,0,56,0,10.7,0,8.8,0,65.3,0
1/3/2004 9:45,15.4,0,44,0,17.6,0,56,0,9,0,54,0,10.8,0,9.3,0,63.6,0
1/3/2004 10:00,15.6,0,45,0,17.8,0,55,0,9.2,0,54,0,10.9,0,9.9,0,61.8,0
1/3/2004 10:15,15.7,0,46,0,18.1,0,54,0,9.8,0,53,0,10.4,0,10.2,0,61,0
1/3/2004 10:30,15.9,0,46,0,18.4,0,52,0,10.1,0,54,0,10.4,0,10.5,0,60.3,0
1/3/2004 10:45,16.1,0,46,0,18.7,0,50,0,10.8,0,52,0,10.7,0,10.9,0,59.5,0
1/3/2004 11:00,16.3,0,45,0,19,0,50,0,11.2,0,50,0,10.8,0,11.2,0,58.8,0
1/3/2004 11:15,16.4,0,46,0,19.4,0,49,0,11.8,0,48,0,10.9,0,11.4,0,59.3,0
1/3/2004 11:30,16.6,0,46,0,19.7,0,49,0,12.4,0,47,0,11.2,0,11.6,0,59.8,0
1/3/2004 11:45,16.8,0,46,0,20,0,48,0,12.9,0,44,0,11.3,0,11.9,0,60.3,0
1/3/2004 12:00,16.7,0,46,0,20.2,0,47,0,13.3,0,44,0,11.5,0,12.1,0,60.8,0
1/3/2004 12:15,16.7,0,46,0,20.4,0,47,0,14.6,0,41,0,11.8,0,12.3,0,59.8,0
1/3/2004 12:30,16.7,0,46,0,20.7,0,45,0,14.8,0,38,0,11.9,0,12.5,0,58.8,0
1/3/2004 12:45,17.2,0,47,0,20.7,0,46,0,14.9,0,38,0,12,0,12.7,0,57.8,0
1/3/2004 13:00,17.4,0,49,0,20.7,0,46,0,15,0,38,0,12.3,0,12.9,0,56.8,0
1/3/2004 13:15,17.7,0,48,0,20.6,0,46,0,14.3,0,38,0,12.4,0,13,0,56,0
1/3/2004 13:30,17.8,0,48,0,20.5,0,46,0,14,0,38,0,12.5,0,13,0,55.3,0
1/3/2004 13:45,17.8,0,48,0,20.4,0,47,0,14.6,0,38,0,11.3,0,13.1,0,54.5,0
1/3/2004 14:00,18.1,0,46,0,20.5,0,48,0,13.7,0,39,0,11.5,0,13.2,0,53.8,0
1/3/2004 14:15,18,0,47,0,20.7,0,45,0,13.2,0,40,0,11.6,0,13.1,0,54,0
1/3/2004 14:30,18.1,0,47,0,20.8,0,42,0,12.9,0,39,0,11.9,0,13,0,54.3,0
1/3/2004 14:45,18.3,0,46,0,21.1,0,41,0,12.9,0,41,0,12,0,13,0,54.5,0
1/3/2004 15:00,18.3,0,46,0,21.1,0,41,0,12.8,0,41,0,12.2,0,12.9,0,54.8,0
1/3/2004 15:15,18.2,0,47,0,21,0,41,0,12.8,0,41,0,10.9,0,12.8,0,55,0
1/3/2004 15:30,18.1,0,48,0,20.9,0,41,0,12.7,0,40,0,11,0,12.6,0,55.3,0
1/3/2004 15:45,17.9,0,49,0,20.7,0,42,0,12.5,0,40,0,11.2,0,12.5,0,55.5,0
1/3/2004 16:00,17.9,0,50,0,20.5,0,44,0,12.4,0,43,0,11.3,0,12.4,0,55.8,0
1/3/2004 16:15,17.9,0,51,0,20.3,0,45,0,12.2,0,45,0,11.5,0,12.1,0,57,0
1/3/2004 16:30,17.9,0,51,0,20.1,0,46,0,11.6,0,48,0,11.8,0,11.8,0,58.3,0
1/3/2004 16:45,17.9,0,51,0,20,0,47,0,11,0,50,0,11.9,0,11.5,0,59.5,0
1/3/2004 17:00,17.9,0,50,0,20,0,49,0,10.6,0,52,0,12.1,0,11.2,0,60.8,0
1/3/2004 17:15,17.9,0,50,0,20,0,49,0,10.3,0,53,0,12.2,0,11,0,61,0
1/3/2004 17:30,17.6,0,48,0,20,0,49,0,10.1,0,55,0,11.3,0,10.9,0,61.3,0
1/3/2004 17:45,17.6,0,48,0,19.8,0,50,0,9.8,0,56,0,11.4,0,10.7,0,61.5,0
1/3/2004 18:00,17.6,0,47,0,19.8,0,50,0,9.5,0,57,0,11.6,0,10.6,0,61.8,0
1/3/2004 18:15,17.4,0,47,0,19.7,0,50,0,9.4,0,58,0,11.7,0,10.6,0,62.8,0
1/3/2004 18:30,17.4,0,48,0,19.5,0,50,0,9.3,0,59,0,11.9,0,10.6,0,63.8,0
1/3/2004 18:45,17.6,0,48,0,19.3,0,50,0,8.7,0,61,0,12.1,0,10.7,0,64.8,0
1/3/2004 19:00,17.7,0,49,0,19.2,0,49,0,8.7,0,61,0,12.3,0,10.7,0,65.8,0
1/3/2004 19:15,17.8,0,49,0,19.2,0,49,0,8.7,0,61,0,11.2,0,10.7,0,63.1,0
1/3/2004 19:30,17.8,0,50,0,19,0,50,0,9.3,0,58,0,11.3,0,10.6,0,60.3,0
1/3/2004 19:45,17.8,0,48,0,19,0,50,0,10,0,47,0,11.6,0,10.6,0,57.6,0
1/3/2004 20:00,17.8,0,48,0,18.9,0,50,0,9.8,0,46,0,10.9,0,10.6,0,54.8,0
1/3/2004 20:15,17.6,0,47,0,18.8,0,50,0,9.6,0,46,0,10.9,0,10.4,0,55,0
1/3/2004 20:30,17.8,0,47,0,18.7,0,50,0,9.6,0,45,0,11.2,0,10.1,0,55.3,0
1/3/2004 20:45,17.8,0,47,0,18.6,0,50,0,9.7,0,44,0,11.3,0,9.9,0,55.5,0
1/3/2004 21:00,17.9,0,48,0,18.6,0,50,0,9.6,0,43,0,10.6,0,9.7,0,55.8,0
1/3/2004 21:15,17.7,0,46,0,18.5,0,50,0,9.4,0,41,0,10.7,0,9.6,0,54.8,0
1/3/2004 21:30,17.8,0,46,0,18.5,0,50,0,9.3,0,42,0,10.9,0,9.4,0,53.8,0
1/3/2004 21:45,17.6,0,46,0,18.3,0,50,0,9.6,0,41,0,11,0,9.3,0,52.8,0
1/3/2004 22:00,18,0,45,0,18.3,0,50,0,9.3,0,40,0,11.2,0,9.2,0,51.8,0
1/3/2004 22:15,17.8,0,46,0,18.2,0,50,0,9.1,0,41,0,11.4,0,9,0,51.5,0
1/3/2004 22:30,17.8,0,46,0,18.3,0,50,0,9.1,0,41,0,10.7,0,8.9,0,51.3,0
1/3/2004 22:45,17.7,0,46,0,18.1,0,50,0,8.7,0,42,0,10.8,0,8.7,0,51,0
1/3/2004 23:00,17.7,0,47,0,18.1,0,51,0,8.6,0,43,0,10.9,0,8.6,0,50.8,0
1/3/2004 23:15,17.7,0,47,0,18.2,0,51,0,8.5,0,43,0,11.1,0,8.5,0,51,0
1/3/2004 23:30,17.7,0,46,0,18.1,0,51,0,8.4,0,43,0,11.1,0,8.4,0,51.3,0
1/3/2004 23:45,17.7,0,46,0,18,0,51,0,8.4,0,43,0,11.3,0,8.3,0,51.5,0
1/4/2004 0:00,17.4,0,46,0,17.9,0,51,0,8.2,0,43,0,11.5,0,8.2,0,51.8,0
1/4/2004 0:15,17.1,0,45,0,18,0,52,0,8.3,0,43,0,11.6,0,8.2,0,52,0
1/4/2004 0:30,16.8,0,44,0,18,0,53,0,8.7,0,43,0,11.8,0,8.2,0,52.3,0
1/4/2004 0:45,16.8,0,44,0,18,0,53,0,8.6,0,43,0,12,0,8.2,0,52.5,0
1/4/2004 1:00,16.5,0,43,0,17.9,0,54,0,8.1,0,43,0,12.1,0,8.2,0,52.8,0
1/4/2004 1:15,16.4,0,43,0,18,0,55,0,8.1,0,43,0,12.2,0,8.1,0,52.8,0
1/4/2004 1:30,16.3,0,43,0,18,0,56,0,7.8,0,44,0,12.4,0,8,0,52.8,0
1/4/2004 1:45,16.2,0,42,0,18,0,56,0,7.8,0,44,0,12.5,0,8,0,52.8,0
1/4/2004 2:00,16.1,0,42,0,17.9,0,56,0,8,0,44,0,12.6,0,7.9,0,52.8,0
1/4/2004 2:15,15.8,0,42,0,17.9,0,57,0,8.1,0,45,0,12.8,0,7.7,0,53,0
1/4/2004 2:30,15.7,0,42,0,17.9,0,57,0,7.8,0,45,0,12.8,0,7.6,0,53.3,0
1/4/2004 2:45,15.7,0,42,0,17.9,0,57,0,8.1,0,45,0,12.9,0,7.4,0,53.5,0
1/4/2004 3:00,15.4,0,42,0,17.8,0,57,0,8,0,45,0,13,0,7.3,0,53.8,0
1/4/2004 3:15,15.3,0,42,0,17.7,0,58,0,7.9,0,45,0,13.3,0,7.2,0,54.5,0
1/4/2004 3:30,15.4,0,42,0,17.7,0,58,0,7.8,0,46,0,13.4,0,7,0,55.3,0
1/4/2004 3:45,15.2,0,42,0,17.6,0,58,0,7.8,0,46,0,13.5,0,6.9,0,56,0
1/4/2004 4:00,15.1,0,42,0,17.6,0,59,0,7.6,0,47,0,13.6,0,6.8,0,56.8,0
1/4/2004 4:15,14.9,0,42,0,17.7,0,59,0,7.5,0,47,0,13.7,0,6.8,0,55.8,0
1/4/2004 4:30,14.8,0,43,0,17.6,0,59,0,7.8,0,47,0,13.9,0,6.9,0,54.8,0
1/4/2004 4:45,14.7,0,43,0,17.5,0,59,0,7.6,0,48,0,14.1,0,6.9,0,53.8,0
1/4/2004 5:00,14.7,0,43,0,17.4,0,59,0,6,0,52,0,14.2,0,7,0,52.8,0
1/4/2004 5:15,14.6,0,43,0,17.4,0,59,0,6,0,53,0,14.3,0,7,0,53.3,0
1/4/2004 5:30,14.4,0,43,0,17.4,0,59,0,6.6,0,53,0,14.4,0,7,0,53.8,0
1/4/2004 5:45,14.3,0,43,0,17.3,0,59,0,6.9,0,52,0,14.6,0,7,0,54.3,0
1/4/2004 6:00,14.3,0,43,0,17.2,0,60,0,6.5,0,52,0,14.6,0,7,0,54.8,0
1/4/2004 6:15,14.1,0,43,0,17.2,0,59,0,6.6,0,53,0,14.7,0,6.9,0,54.8,0
1/4/2004 6:30,14,0,43,0,17.2,0,60,0,6.8,0,50,0,14.8,0,6.9,0,54.8,0
1/4/2004 6:45,14,0,43,0,17.1,0,60,0,7.2,0,48,0,15,0,6.8,0,54.8,0
1/4/2004 7:00,13.8,0,43,0,17.1,0,60,0,6.6,0,49,0,15.1,0,6.8,0,54.8,0
1/4/2004 7:15,13.7,0,43,0,17,0,60,0,7,0,48,0,15.2,0,6.9,0,53.8,0
1/4/2004 7:30,13.7,0,43,0,17,0,60,0,6.7,0,48,0,15.3,0,7,0,52.8,0
1/4/2004 7:45,13.6,0,43,0,16.9,0,60,0,6.6,0,46,0,15.4,0,7.2,0,51.8,0
1/4/2004 8:00,13.6,0,43,0,16.8,0,60,0,6.8,0,45,0,15.4,0,7.3,0,50.8,0
1/4/2004 8:15,13.5,0,43,0,17.2,0,60,0,6.9,0,45,0,15.6,0,7.4,0,49.5,0
1/4/2004 8:30,13.6,0,44,0,16.9,0,58,0,6.7,0,44,0,15.6,0,7.6,0,48.3,0
1/4/2004 8:45,13.7,0,45,0,16.8,0,57,0,6.9,0,42,0,15.8,0,7.7,0,47,0
1/4/2004 9:00,13.8,0,47,0,16.6,0,57,0,7.7,0,42,0,10.7,0,7.9,0,45.8,0
1/4/2004 9:15,14.2,0,47,0,16.8,0,52,0,7.8,0,40,0,10.2,0,8.1,0,44.5,0
1/4/2004 9:30,14.6,0,46,0,16.8,0,54,0,8.3,0,39,0,10.4,0,8.3,0,43.3,0
1/4/2004 9:45,14.6,0,45,0,16.6,0,54,0,8.6,0,38,0,10.5,0,8.6,0,42,0
1/4/2004 10:00,14.7,0,45,0,16.5,0,53,0,9,0,35,0,10.7,0,8.8,0,40.8,0
1/4/2004 10:15,14.8,0,44,0,16.4,0,53,0,9,0,34,0,10.9,0,8.9,0,40.5,0
1/4/2004 10:30,14.9,0,44,0,16.6,0,52,0,9.3,0,35,0,11.1,0,9,0,40.3,0
1/4/2004 10:45,15.1,0,44,0,16.7,0,52,0,9.3,0,33,0,11.3,0,9.2,0,40,0
1/4/2004 11:00,15.2,0,43,0,16.8,0,52,0,10.1,0,32,0,11.4,0,9.3,0,39.8,0
1/4/2004 11:15,15.2,0,43,0,17,0,52,0,10,0,32,0,11.6,0,9.4,0,38.8,0
1/4/2004 11:30,15.4,0,43,0,17,0,51,0,10.1,0,32,0,11.8,0,9.6,0,37.8,0
1/4/2004 11:45,15.4,0,44,0,17.1,0,51,0,9.9,0,32,0,11.9,0,9.7,0,36.8,0
1/4/2004 12:00,15.8,0,44,0,17.3,0,51,0,11.5,0,29,0,12.1,0,9.9,0,35.8,0
1/4/2004 12:15,16,0,45,0,17.4,0,51,0,11,0,29,0,12.2,0,10,0,34.8,0
1/4/2004 12:30,16.3,0,44,0,17.6,0,50,0,11.7,0,29,0,12.4,0,10.1,0,33.8,0